Time,TemperatureF,DewpointF,PressureIn,WindDirection,WindDirectionDegrees,WindSpeedMPH,WindSpeedGustMPH,Humidity,HourlyPrecipIn,Conditions,Clouds,dailyrainin,SolarRadiationWatts/m^2,SoftwareType,DateUTC
2013-08-04 00:01:00,71.5,70.0,30.03,NW,311,0.0,0.0,95,0.00,CLR,,0.00,0.0,WeatherDisplay:10.37,2013-08-04 04:01:00,
2013-08-04 00:02:00,71.5,69.7,30.03,NW,311,0.0,0.0,94,0.00,CLR,,0.00,0.0,WeatherDisplay:10.37,2013-08-04 04:02:00,
2013-08-04 00:07:00,71.6,69.8,30.03,NW,311,0.0,0.0,94,0.00,CLR,,0.00,0.0,WeatherDisplay:10.37,2013-08-04 04:07:00,
2013-08-04 00:12:00,71.7,69.9,30.03,NW,311,0.0,0.0,94,0.00,CLR,,0.00,0.0,WeatherDisplay:10.37,2013-08-04 04:12:00,
2013-08-04 00:17:00,71.7,69.9,30.03,NW,311,0.0,0.0,94,0.00,CLR,,0.00,0.0,WeatherDisplay:10.37,2013-08-04 04:17:00,
2013-08-04 00:22:00,71.7,69.9,30.03,NW,311,0.0,0.0,94,0.00,CLR,,0.00,0.0,WeatherDisplay:10.37,2013-08-04 04:22:00,
2013-08-04 00:27:00,71.8,70.0,30.03,NW,311,0.0,0.0,94,0.00,CLR,,0.00,0.0,WeatherDisplay:10.37,2013-08-04 04:27:00,
2013-08-04 00:32:00,71.8,70.0,30.03,NW,311,0.0,0.0,94,0.00,CLR,,0.00,0.0,WeatherDisplay:10.37,2013-08-04 04:32:00,
2013-08-04 00:37:00,71.8,70.0,30.03,NW,311,0.0,0.0,94,0.00,CLR,,0.00,0.0,WeatherDisplay:10.37,2013-08-04 04:37:00,
2013-08-04 00:42:00,71.7,69.9,30.03,NW,311,0.0,0.0,94,0.00,CLR,,0.00,0.0,WeatherDisplay:10.37,2013-08-04 04:42:00,
2013-08-04 00:47:00,71.7,69.9,30.03,NW,311,0.0,0.0,94,0.00,CLR,,0.00,0.0,WeatherDisplay:10.37,2013-08-04 04:47:00,
2013-08-04 00:52:00,71.8,70.0,30.03,NW,311,0.0,0.0,94,0.00,CLR,,0.00,0.0,WeatherDisplay:10.37,2013-08-04 04:52:00,
2013-08-04 00:57:00,71.8,70.0,30.03,NW,311,0.0,0.0,94,0.00,CLR,,0.00,0.0,WeatherDisplay:10.37,2013-08-04 04:57:00,
2013-08-04 01:02:00,71.8,70.0,30.03,NW,311,0.0,0.0,94,0.00,CLR,,0.00,0.0,WeatherDisplay:10.37,2013-08-04 05:02:00,
2013-08-04 01:07:00,71.6,69.8,30.03,NW,311,0.0,0.0,94,0.00,CLR,,0.00,0.0,WeatherDisplay:10.37,2013-08-04 05:07:00,
2013-08-04 01:12:00,71.4,69.6,30.03,NW,311,0.0,0.0,94,0.00,CLR,,0.00,0.0,WeatherDisplay:10.37,2013-08-04 05:12:00,
2013-08-04 01:17:00,71.4,69.6,30.03,NW,311,0.0,0.0,94,0.00,CLR,,0.00,0.0,WeatherDisplay:10.37,2013-08-04 05:17:00,
2013-08-04 01:22:00,71.4,69.9,30.03,NW,311,0.0,0.0,95,0.00,CLR,,0.00,0.0,WeatherDisplay:10.37,2013-08-04 05:22:00,
2013-08-04 01:27:00,71.6,70.1,30.03,NW,311,0.0,0.0,95,0.00,CLR,,0.00,0.0,WeatherDisplay:10.37,2013-08-04 05:27:00,
2013-08-04 01:32:00,71.7,70.2,30.03,NW,311,0.0,0.0,95,0.00,CLR,,0.00,0.0,WeatherDisplay:10.37,2013-08-04 05:32:00,
2013-08-04 01:37:00,71.8,70.0,30.03,NW,311,0.0,0.0,94,0.00,CLR,,0.00,0.0,WeatherDisplay:10.37,2013-08-04 05:37:00,
2013-08-04 01:42:00,72.0,70.2,30.03,NW,311,0.0,0.0,94,0.00,CLR,,0.00,0.0,WeatherDisplay:10.37,2013-08-04 05:42:00,
2013-08-04 01:47:00,72.1,70.3,30.03,NW,311,0.0,0.0,94,0.00,CLR,,0.00,0.0,WeatherDisplay:10.37,2013-08-04 05:47:00,
2013-08-04 01:52:00,72.1,70.3,30.02,NW,311,0.0,0.0,94,0.00,CLR,,0.00,0.0,WeatherDisplay:10.37,2013-08-04 05:52:00,
2013-08-04 01:57:00,72.1,70.0,30.02,NW,306,0.0,0.0,93,0.00,CLR,,0.00,0.0,WeatherDisplay:10.37,2013-08-04 05:57:00,
2013-08-04 02:02:00,72.2,70.1,30.02,WNW,295,0.0,0.0,93,0.00,CLR,,0.00,0.0,WeatherDisplay:10.37,2013-08-04 06:02:00,
2013-08-04 02:07:00,72.2,70.1,30.02,WNW,295,0.0,0.0,93,0.00,CLR,,0.00,0.0,WeatherDisplay:10.37,2013-08-04 06:07:00,
2013-08-04 02:12:00,72.2,70.1,30.01,WNW,294,0.0,0.0,93,0.00,CLR,,0.00,0.0,WeatherDisplay:10.37,2013-08-04 06:12:00,
2013-08-04 02:17:00,72.2,70.1,30.01,WNW,294,0.0,0.0,93,0.00,CLR,,0.00,0.0,WeatherDisplay:10.37,2013-08-04 06:17:00,
2013-08-04 02:22:00,72.2,70.1,30.01,WNW,292,0.0,0.0,93,0.00,CLR,,0.00,0.0,WeatherDisplay:10.37,2013-08-04 06:22:00,
2013-08-04 02:27:00,72.3,70.2,30.01,WNW,292,0.0,0.0,93,0.00,CLR,,0.00,0.0,WeatherDisplay:10.37,2013-08-04 06:27:00,
2013-08-04 02:32:00,72.4,70.3,30.01,WNW,291,0.0,0.0,93,0.00,CLR,,0.00,0.0,WeatherDisplay:10.37,2013-08-04 06:32:00,
2013-08-04 02:37:00,72.4,70.3,30.00,WNW,291,0.0,0.0,93,0.00,CLR,,0.00,0.0,WeatherDisplay:10.37,2013-08-04 06:37:00,
2013-08-04 02:42:00,72.4,70.3,30.00,WNW,291,0.0,0.0,93,0.00,CLR,,0.00,0.0,WeatherDisplay:10.37,2013-08-04 06:42:00,
2013-08-04 02:47:00,72.3,70.2,30.00,WNW,291,0.0,0.0,93,0.00,CLR,,0.00,0.0,WeatherDisplay:10.37,2013-08-04 06:47:00,
2013-08-04 02:52:00,72.2,70.1,30.00,WNW,291,0.0,0.0,93,0.00,CLR,,0.00,0.0,WeatherDisplay:10.37,2013-08-04 06:52:00,
2013-08-04 02:57:00,72.1,70.0,30.00,WNW,291,0.0,0.0,93,0.00,CLR,,0.00,0.0,WeatherDisplay:10.37,2013-08-04 06:57:00,
2013-08-04 03:02:00,72.1,70.0,30.00,WNW,292,0.0,0.0,93,0.00,CLR,,0.00,0.0,WeatherDisplay:10.37,2013-08-04 07:02:00,
2013-08-04 03:07:00,71.9,69.8,30.00,WNW,292,0.0,0.0,93,0.00,CLR,,0.00,0.0,WeatherDisplay:10.37,2013-08-04 07:07:00,
2013-08-04 03:12:00,71.9,69.4,30.00,WNW,292,0.0,0.0,92,0.00,CLR,,0.00,0.0,WeatherDisplay:10.37,2013-08-04 07:12:00,
2013-08-04 03:17:00,71.9,69.4,30.00,North,355,0.0,0.0,92,0.00,CLR,,0.00,0.0,WeatherDisplay:10.37,2013-08-04 07:17:00,
2013-08-04 03:22:00,72.0,69.5,29.99,NW,321,0.0,0.0,92,0.00,CLR,,0.00,0.0,WeatherDisplay:10.37,2013-08-04 07:22:00,
2013-08-04 03:27:00,72.1,69.6,29.99,NW,319,0.0,0.0,92,0.00,CLR,,0.00,0.0,WeatherDisplay:10.37,2013-08-04 07:27:00,
2013-08-04 03:32:00,72.1,69.3,29.99,NW,319,0.0,0.0,91,0.00,CLR,,0.00,0.0,WeatherDisplay:10.37,2013-08-04 07:32:00,
2013-08-04 03:37:00,72.0,69.5,29.99,NW,319,0.0,0.0,92,0.00,CLR,,0.00,0.0,WeatherDisplay:10.37,2013-08-04 07:37:00,
2013-08-04 03:42:00,72.0,69.2,29.99,North,355,0.0,0.0,91,0.00,CLR,,0.00,0.0,WeatherDisplay:10.37,2013-08-04 07:42:00,
2013-08-04 03:47:00,72.0,69.2,29.99,NNW,341,0.0,0.0,91,0.00,CLR,,0.00,0.0,WeatherDisplay:10.37,2013-08-04 07:47:00,
2013-08-04 03:52:00,71.9,69.1,29.99,NNW,341,0.0,0.0,91,0.00,CLR,,0.00,0.0,WeatherDisplay:10.37,2013-08-04 07:52:00,
2013-08-04 03:57:00,71.8,69.0,29.99,NNW,342,0.0,0.0,91,0.00,CLR,,0.00,0.0,WeatherDisplay:10.37,2013-08-04 07:57:00,
2013-08-04 04:03:00,71.6,68.8,29.98,NNW,341,0.0,0.0,91,0.00,CLR,,0.00,0.0,WeatherDisplay:10.37,2013-08-04 08:03:00,
2013-08-04 04:08:00,71.3,68.9,29.99,NNW,341,0.0,0.0,92,0.00,CLR,,0.00,0.0,WeatherDisplay:10.37,2013-08-04 08:08:00,
2013-08-04 04:12:00,71.2,68.8,29.99,NNW,341,0.0,0.0,92,0.00,CLR,,0.00,0.0,WeatherDisplay:10.37,2013-08-04 08:12:00,
2013-08-04 04:18:00,71.0,68.6,29.99,NNW,341,0.0,0.0,92,0.00,CLR,,0.00,0.0,WeatherDisplay:10.37,2013-08-04 08:18:00,
2013-08-04 04:23:00,70.9,68.8,29.99,NNW,341,0.0,0.0,93,0.00,CLR,,0.00,0.0,WeatherDisplay:10.37,2013-08-04 08:23:00,
2013-08-04 04:28:00,70.8,68.7,29.99,NNW,341,0.0,0.0,93,0.00,CLR,,0.00,0.0,WeatherDisplay:10.37,2013-08-04 08:28:00,
2013-08-04 04:33:00,70.6,68.5,29.98,NNW,341,0.0,0.0,93,0.00,CLR,,0.00,0.0,WeatherDisplay:10.37,2013-08-04 08:33:00,
2013-08-04 04:38:00,70.4,68.3,29.99,NNW,341,0.0,0.0,93,0.00,CLR,,0.00,0.0,WeatherDisplay:10.37,2013-08-04 08:38:00,
2013-08-04 04:43:00,70.3,68.5,29.99,NNW,341,0.0,0.0,94,0.00,CLR,,0.00,0.0,WeatherDisplay:10.37,2013-08-04 08:43:00,
2013-08-04 04:48:00,70.3,68.2,29.99,NNW,341,0.0,0.0,93,0.00,CLR,,0.00,0.0,WeatherDisplay:10.37,2013-08-04 08:48:00,
2013-08-04 04:50:00,76.3,69.3,30.01,ESE,105,0.0,0.0,79,0.00,OVC,,0.01,480.0,WeatherDisplay:10.37,2013-08-04 08:50:00,
2013-08-04 04:53:00,70.3,68.2,29.99,NNW,341,0.0,0.0,93,0.00,CLR,,0.00,0.0,WeatherDisplay:10.37,2013-08-04 08:53:00,
2013-08-04 04:58:00,70.3,68.2,29.98,NNW,341,0.0,0.0,93,0.00,CLR,,0.00,0.0,WeatherDisplay:10.37,2013-08-04 08:58:00,
2013-08-04 05:00:00,75.9,69.6,30.01,ESE,112,0.0,0.0,81,0.00,OVC,,0.01,515.0,WeatherDisplay:10.37,2013-08-04 09:00:00,
2013-08-04 05:03:00,70.3,68.2,29.98,NNW,341,0.0,0.0,93,0.00,CLR,,0.00,0.0,WeatherDisplay:10.37,2013-08-04 09:03:00,
2013-08-04 05:08:00,70.2,68.1,29.98,NNW,341,0.0,0.0,93,0.00,CLR,,0.00,0.0,WeatherDisplay:10.37,2013-08-04 09:08:00,
2013-08-04 05:10:00,76.1,69.5,30.01,ESE,112,0.0,0.0,80,0.00,OVC,,0.01,550.0,WeatherDisplay:10.37,2013-08-04 09:10:00,
2013-08-04 05:13:00,70.1,68.3,29.98,NNW,341,0.0,0.0,94,0.00,CLR,,0.00,0.0,WeatherDisplay:10.37,2013-08-04 09:13:00,
2013-08-04 05:18:00,70.0,67.9,29.99,NNW,341,0.0,0.0,93,0.00,CLR,,0.00,0.0,WeatherDisplay:10.37,2013-08-04 09:18:00,
2013-08-04 05:20:00,76.1,69.8,30.01,ESE,112,0.0,0.0,81,0.00,OVC,,0.01,582.0,WeatherDisplay:10.37,2013-08-04 09:20:00,
2013-08-04 05:23:00,69.9,68.1,29.98,NNW,341,0.0,0.0,94,0.00,CLR,,0.00,0.0,WeatherDisplay:10.37,2013-08-04 09:23:00,
2013-08-04 05:28:00,69.9,68.1,29.99,NNW,341,0.0,0.0,94,0.00,CLR,,0.00,0.0,WeatherDisplay:10.37,2013-08-04 09:28:00,
2013-08-04 05:30:00,76.5,70.2,30.01,ESE,112,0.0,0.0,81,0.00,OVC,,0.01,612.0,WeatherDisplay:10.37,2013-08-04 09:30:00,
2013-08-04 05:33:00,69.9,68.1,29.99,NNW,341,0.0,0.0,94,0.00,CLR,,0.00,0.0,WeatherDisplay:10.37,2013-08-04 09:33:00,
2013-08-04 05:38:00,69.9,68.1,29.99,NNW,341,0.0,0.0,94,0.00,CLR,,0.00,0.0,WeatherDisplay:10.37,2013-08-04 09:38:00,
2013-08-04 05:40:00,77.2,70.2,30.01,ESE,112,0.0,0.0,79,0.00,OVC,,0.01,644.0,WeatherDisplay:10.37,2013-08-04 09:40:00,
2013-08-04 05:43:00,69.9,68.1,29.99,NNW,341,0.0,0.0,94,0.00,CLR,,0.00,0.0,WeatherDisplay:10.37,2013-08-04 09:43:00,
2013-08-04 05:48:00,69.8,68.0,29.99,NNW,341,0.0,0.0,94,0.00,CLR,,0.00,0.0,WeatherDisplay:10.37,2013-08-04 09:48:00,
2013-08-04 05:50:00,77.7,70.7,30.01,ESE,112,0.0,0.0,79,0.00,OVC,,0.01,582.0,WeatherDisplay:10.37,2013-08-04 09:50:00,
2013-08-04 05:53:00,69.8,68.0,29.99,NNW,341,0.0,0.0,94,0.00,CLR,,0.00,0.0,WeatherDisplay:10.37,2013-08-04 09:53:00,
2013-08-04 05:58:00,69.8,68.0,29.99,NNW,341,0.0,0.0,94,0.00,CLR,,0.00,0.0,WeatherDisplay:10.37,2013-08-04 09:58:00,
2013-08-04 06:00:00,78.4,70.6,30.01,ESE,112,0.0,0.0,77,0.00,OVC,,0.01,413.0,WeatherDisplay:10.37,2013-08-04 10:00:00,
2013-08-04 06:03:00,69.8,68.0,29.99,NNW,341,0.0,0.0,94,0.00,CLR,,0.00,0.0,WeatherDisplay:10.37,2013-08-04 10:03:00,
2013-08-04 06:08:00,69.8,68.0,29.99,NNW,341,0.0,0.0,94,0.00,CLR,,0.00,0.0,WeatherDisplay:10.37,2013-08-04 10:08:00,
2013-08-04 06:10:00,78.8,71.4,30.00,ESE,112,0.0,0.0,78,0.00,OVC,,0.01,659.0,WeatherDisplay:10.37,2013-08-04 10:10:00,
2013-08-04 06:13:00,69.9,67.8,29.99,North,360,0.0,0.0,93,0.00,CLR,,0.00,0.0,WeatherDisplay:10.37,2013-08-04 10:13:00,
2013-08-04 06:18:00,70.1,68.0,29.99,North,355,0.0,0.0,93,0.00,CLR,,0.00,0.0,WeatherDisplay:10.37,2013-08-04 10:18:00,
2013-08-04 06:20:00,79.6,71.0,30.00,ESE,112,0.0,0.0,75,0.00,OVC,,0.01,729.0,WeatherDisplay:10.37,2013-08-04 10:20:00,
2013-08-04 06:23:00,70.4,67.6,29.99,NNE,30,0.0,0.0,91,0.00,CLR,,0.00,0.0,WeatherDisplay:10.37,2013-08-04 10:23:00,
2013-08-04 06:28:00,70.9,67.8,29.99,North,5,0.0,0.0,90,0.00,CLR,,0.00,0.0,WeatherDisplay:10.37,2013-08-04 10:28:00,
2013-08-04 06:30:00,80.2,69.1,30.01,ESE,112,0.0,0.0,69,0.00,OVC,,0.01,664.0,WeatherDisplay:10.37,2013-08-04 10:30:00,
2013-08-04 06:33:00,71.3,67.9,29.99,NNE,17,0.0,0.0,89,0.00,CLR,,0.00,0.0,WeatherDisplay:10.37,2013-08-04 10:33:00,
2013-08-04 06:38:00,71.6,68.2,29.99,NNE,14,0.0,0.0,89,0.00,CLR,,0.00,0.0,WeatherDisplay:10.37,2013-08-04 10:38:00,
2013-08-04 06:40:00,80.0,70.6,30.01,ESE,112,0.0,0.0,73,0.00,OVC,,0.01,661.0,WeatherDisplay:10.37,2013-08-04 10:40:00,
2013-08-04 06:43:00,71.7,68.0,29.99,NNE,26,0.0,0.0,88,0.00,CLR,,0.00,5.0,WeatherDisplay:10.37,2013-08-04 10:43:00,
2013-08-04 06:48:00,71.9,67.8,29.99,NNW,347,0.0,0.0,87,0.00,CLR,,0.00,0.0,WeatherDisplay:10.37,2013-08-04 10:48:00,
2013-08-04 06:50:00,80.4,70.5,30.01,ESE,112,0.0,0.0,72,0.00,CLR,,0.01,797.0,WeatherDisplay:10.37,2013-08-04 10:50:00,
2013-08-04 06:53:00,72.0,67.9,29.99,North,351,0.0,0.0,87,0.00,CLR,,0.00,5.0,WeatherDisplay:10.37,2013-08-04 10:53:00,
2013-08-04 06:58:00,72.1,68.0,29.99,NNW,348,0.0,0.0,87,0.00,CLR,,0.00,7.0,WeatherDisplay:10.37,2013-08-04 10:58:00,
2013-08-04 07:00:00,80.7,70.4,30.01,ESE,112,0.0,0.0,71,0.00,CLR,,0.01,708.0,WeatherDisplay:10.37,2013-08-04 11:00:00,
2013-08-04 07:03:00,72.0,67.9,30.00,NNW,336,0.0,0.0,87,0.00,CLR,,0.00,9.0,WeatherDisplay:10.37,2013-08-04 11:03:00,
2013-08-04 07:08:00,71.9,67.8,29.99,NNW,333,0.0,0.0,87,0.00,CLR,,0.00,14.0,WeatherDisplay:10.37,2013-08-04 11:08:00,
2013-08-04 07:10:00,80.6,69.5,30.01,ESE,112,0.0,0.0,69,0.00,CLR,,0.01,747.0,WeatherDisplay:10.37,2013-08-04 11:10:00,
2013-08-04 07:13:00,71.9,67.8,29.99,NNW,340,0.0,0.0,87,0.00,CLR,,0.00,19.0,WeatherDisplay:10.37,2013-08-04 11:13:00,
2013-08-04 07:18:00,71.7,68.0,29.99,NNW,341,0.0,0.0,88,0.00,CLR,,0.00,26.0,WeatherDisplay:10.37,2013-08-04 11:18:00,
2013-08-04 07:20:00,80.9,70.2,30.00,ESE,112,0.0,0.0,70,0.00,CLR,,0.01,783.0,WeatherDisplay:10.37,2013-08-04 11:20:00,
2013-08-04 07:23:00,71.6,67.5,29.99,NNW,345,0.0,0.0,87,0.00,CLR,,0.00,30.0,WeatherDisplay:10.37,2013-08-04 11:23:00,
2013-08-04 07:28:00,71.6,67.5,29.99,North,355,0.0,0.0,87,0.00,CLR,,0.00,35.0,WeatherDisplay:10.37,2013-08-04 11:28:00,
2013-08-04 07:30:00,81.3,71.4,30.00,ESE,112,0.0,0.0,72,0.00,CLR,,0.01,844.0,WeatherDisplay:10.37,2013-08-04 11:30:00,
2013-08-04 07:33:00,71.5,67.4,29.99,North,355,0.0,0.0,87,0.00,CLR,,0.00,42.0,WeatherDisplay:10.37,2013-08-04 11:33:00,
2013-08-04 07:38:00,71.5,67.8,29.99,NNW,347,0.0,0.0,88,0.00,CLR,,0.00,42.0,WeatherDisplay:10.37,2013-08-04 11:38:00,
2013-08-04 07:40:00,81.4,70.7,30.00,ESE,112,0.0,0.0,70,0.00,CLR,,0.01,445.0,WeatherDisplay:10.37,2013-08-04 11:40:00,
2013-08-04 07:43:00,71.4,68.0,30.00,NNW,347,0.0,0.0,89,0.00,CLR,,0.00,44.0,WeatherDisplay:10.37,2013-08-04 11:43:00,
2013-08-04 07:48:00,71.3,68.2,30.00,NNW,347,0.0,0.0,90,0.00,CLR,,0.00,49.0,WeatherDisplay:10.37,2013-08-04 11:48:00,
2013-08-04 07:50:00,81.9,72.0,30.00,ESE,112,0.0,0.0,72,0.00,CLR,,0.01,953.0,WeatherDisplay:10.37,2013-08-04 11:50:00,
2013-08-04 07:53:00,71.0,67.9,30.00,NNW,347,0.0,0.0,90,0.00,CLR,,0.00,58.0,WeatherDisplay:10.37,2013-08-04 11:53:00,
2013-08-04 07:58:00,71.0,67.9,30.00,NNW,347,0.0,0.0,90,0.00,CLR,,0.00,67.0,WeatherDisplay:10.37,2013-08-04 11:58:00,
2013-08-04 08:00:00,82.2,71.4,30.00,ESE,112,0.0,0.0,70,0.00,CLR,,0.01,918.0,WeatherDisplay:10.37,2013-08-04 12:00:00,
2013-08-04 08:03:00,71.0,67.9,30.00,NNW,347,0.0,0.0,90,0.00,OVC,,0.00,72.0,WeatherDisplay:10.37,2013-08-04 12:03:00,
2013-08-04 08:08:00,71.1,68.3,30.00,NNW,347,0.0,0.0,91,0.00,OVC,,0.00,74.0,WeatherDisplay:10.37,2013-08-04 12:08:00,
2013-08-04 08:10:00,82.2,70.1,30.00,ESE,112,0.0,0.0,67,0.00,CLR,,0.01,749.0,WeatherDisplay:10.37,2013-08-04 12:10:00,
2013-08-04 08:13:00,71.2,68.4,30.00,NNW,347,0.0,0.0,91,0.00,OVC,,0.00,91.0,WeatherDisplay:10.37,2013-08-04 12:13:00,
2013-08-04 08:18:00,71.3,68.2,30.00,NNW,347,0.0,0.0,90,0.00,OVC,,0.00,130.0,WeatherDisplay:10.37,2013-08-04 12:18:00,
2013-08-04 08:20:00,82.4,71.2,29.99,ESE,112,0.0,0.0,69,0.00,CLR,,0.01,1037.0,WeatherDisplay:10.37,2013-08-04 12:20:00,
2013-08-04 08:23:00,71.5,68.4,30.00,NNW,347,0.0,0.0,90,0.00,OVC,,0.00,185.0,WeatherDisplay:10.37,2013-08-04 12:23:00,
2013-08-04 08:28:00,71.9,69.1,30.00,NNW,347,0.0,0.0,91,0.00,OVC,,0.00,220.0,WeatherDisplay:10.37,2013-08-04 12:28:00,
2013-08-04 08:30:00,82.8,70.7,29.99,ESE,112,0.0,0.0,67,0.00,CLR,,0.01,995.0,WeatherDisplay:10.37,2013-08-04 12:30:00,
2013-08-04 08:33:00,72.2,69.4,30.00,NNW,347,0.0,0.0,91,0.00,OVC,,0.00,214.0,WeatherDisplay:10.37,2013-08-04 12:33:00,
2013-08-04 08:38:00,72.6,69.5,30.00,NNW,347,0.0,0.0,90,0.00,OVC,,0.00,207.0,WeatherDisplay:10.37,2013-08-04 12:38:00,
2013-08-04 08:40:00,83.0,71.8,29.99,ESE,112,0.0,0.0,69,0.00,CLR,,0.01,828.0,WeatherDisplay:10.37,2013-08-04 12:40:00,
2013-08-04 08:43:00,72.9,69.8,30.00,NNW,347,0.0,0.0,90,0.00,OVC,,0.00,148.0,WeatherDisplay:10.37,2013-08-04 12:43:00,
2013-08-04 08:48:00,73.3,69.5,30.01,NNW,347,0.0,0.0,88,0.00,OVC,,0.00,156.0,WeatherDisplay:10.37,2013-08-04 12:48:00,
2013-08-04 08:50:00,82.7,71.9,29.99,ESE,112,0.0,0.0,70,0.00,CLR,,0.01,1035.0,WeatherDisplay:10.37,2013-08-04 12:50:00,
2013-08-04 08:53:00,73.7,70.3,30.01,NNW,347,0.0,0.0,89,0.00,OVC,,0.00,153.0,WeatherDisplay:10.37,2013-08-04 12:53:00,
2013-08-04 08:58:00,73.9,69.8,30.01,NNW,347,0.0,0.0,87,0.00,OVC,,0.00,141.0,WeatherDisplay:10.37,2013-08-04 12:58:00,
2013-08-04 09:00:00,82.6,69.6,29.99,ESE,112,0.0,0.0,65,0.00,CLR,,0.01,947.0,WeatherDisplay:10.37,2013-08-04 13:00:00,
2013-08-04 09:03:00,74.2,69.7,30.01,NNW,347,0.0,0.0,86,0.00,OVC,,0.00,223.0,WeatherDisplay:10.37,2013-08-04 13:03:00,
2013-08-04 09:08:00,74.4,69.6,30.01,NNW,347,0.0,0.0,85,0.00,OVC,,0.00,218.0,WeatherDisplay:10.37,2013-08-04 13:08:00,
2013-08-04 09:10:00,83.4,70.4,29.99,ESE,112,0.0,0.0,65,0.00,CLR,,0.01,995.0,WeatherDisplay:10.37,2013-08-04 13:10:00,
2013-08-04 09:13:00,74.6,69.1,30.01,NW,312,0.0,0.0,83,0.00,OVC,,0.00,197.0,WeatherDisplay:10.37,2013-08-04 13:13:00,
2013-08-04 09:18:00,74.9,69.7,30.01,NW,313,0.0,0.0,84,0.00,OVC,,0.00,304.0,WeatherDisplay:10.37,2013-08-04 13:18:00,
2013-08-04 09:20:00,83.2,70.2,29.99,ESE,112,0.0,0.0,65,0.00,CLR,,0.01,1060.0,WeatherDisplay:10.37,2013-08-04 13:20:00,
2013-08-04 09:23:00,74.9,69.0,30.01,NNW,327,0.0,0.0,82,0.00,OVC,,0.00,376.0,WeatherDisplay:10.37,2013-08-04 13:23:00,
2013-08-04 09:28:00,75.0,69.1,30.01,NNW,327,0.0,0.0,82,0.00,OVC,,0.00,366.0,WeatherDisplay:10.37,2013-08-04 13:28:00,
2013-08-04 09:30:00,83.6,71.5,29.99,ESE,112,0.0,0.0,67,0.00,CLR,,0.01,1028.0,WeatherDisplay:10.37,2013-08-04 13:30:00,
2013-08-04 09:33:00,75.2,69.3,30.01,NNW,327,0.0,0.0,82,0.00,OVC,,0.00,446.0,WeatherDisplay:10.37,2013-08-04 13:33:00,
2013-08-04 09:38:00,75.6,70.1,30.01,NNW,327,0.0,0.0,83,0.00,OVC,,0.00,417.0,WeatherDisplay:10.37,2013-08-04 13:38:00,
2013-08-04 09:40:00,83.0,69.6,29.99,ESE,112,0.0,0.0,64,0.00,CLR,,0.01,872.0,WeatherDisplay:10.37,2013-08-04 13:40:00,
2013-08-04 09:43:00,76.1,69.8,30.01,NNW,327,0.0,0.0,81,0.00,OVC,,0.00,443.0,WeatherDisplay:10.37,2013-08-04 13:43:00,
2013-08-04 09:49:00,76.3,69.7,30.01,North,355,0.0,0.0,80,0.00,OVC,,0.00,468.0,WeatherDisplay:10.37,2013-08-04 13:49:00,
2013-08-04 09:50:00,83.0,70.0,29.99,ESE,112,0.0,0.0,65,0.00,CLR,,0.01,833.0,WeatherDisplay:10.37,2013-08-04 13:50:00,
2013-08-04 09:54:00,76.1,69.5,30.01,NNW,340,0.0,0.0,80,0.00,OVC,,0.00,485.0,WeatherDisplay:10.37,2013-08-04 13:54:00,
2013-08-04 09:59:00,75.9,69.3,30.01,NNW,339,0.0,0.0,80,0.00,OVC,,0.00,510.0,WeatherDisplay:10.37,2013-08-04 13:59:00,
2013-08-04 10:00:00,83.0,69.6,29.99,ESE,112,0.0,0.0,64,0.00,CLR,,0.01,823.0,WeatherDisplay:10.37,2013-08-04 14:00:00,
2013-08-04 10:04:00,76.0,69.4,30.01,North,5,0.0,0.0,80,0.00,OVC,,0.00,529.0,WeatherDisplay:10.37,2013-08-04 14:04:00,
2013-08-04 10:08:00,76.1,69.8,30.01,North,355,0.0,0.0,81,0.00,OVC,,0.00,548.0,WeatherDisplay:10.37,2013-08-04 14:08:00,
2013-08-04 10:10:00,83.3,69.8,29.98,ESE,112,0.0,0.0,64,0.00,CLR,,0.01,886.0,WeatherDisplay:10.37,2013-08-04 14:10:00,
2013-08-04 10:14:00,76.1,69.8,30.01,North,349,0.0,0.0,81,0.00,OVC,,0.00,571.0,WeatherDisplay:10.37,2013-08-04 14:14:00,
2013-08-04 10:18:00,76.0,69.7,30.01,NNW,342,0.0,0.0,81,0.00,OVC,,0.00,573.0,WeatherDisplay:10.37,2013-08-04 14:18:00,
2013-08-04 10:20:00,83.5,69.6,29.97,ESE,112,0.0,0.0,63,0.00,FEW,,0.01,555.0,WeatherDisplay:10.37,2013-08-04 14:20:00,
2013-08-04 10:24:00,76.2,70.3,30.01,NW,325,0.0,0.0,82,0.00,OVC,,0.00,587.0,WeatherDisplay:10.37,2013-08-04 14:24:00,
2013-08-04 10:29:00,76.4,70.1,30.01,NNE,22,0.0,0.0,81,0.00,OVC,,0.00,599.0,WeatherDisplay:10.37,2013-08-04 14:29:00,
2013-08-04 10:30:00,83.2,69.3,29.98,ESE,112,0.0,0.0,63,0.00,CLR,,0.01,965.0,WeatherDisplay:10.37,2013-08-04 14:30:00,
2013-08-04 10:34:00,76.6,70.0,30.01,NE,36,0.0,0.0,80,0.00,OVC,,0.00,617.0,WeatherDisplay:10.37,2013-08-04 14:34:00,
2013-08-04 10:39:00,77.0,70.7,30.01,North,355,0.0,0.0,81,0.00,OVC,,0.00,635.0,WeatherDisplay:10.37,2013-08-04 14:39:00,
2013-08-04 10:40:00,83.6,69.2,29.97,ESE,112,0.0,0.0,62,0.00,CLR,,0.01,821.0,WeatherDisplay:10.37,2013-08-04 14:40:00,
2013-08-04 10:43:00,77.3,69.9,30.01,North,355,0.0,0.0,78,0.00,OVC,,0.00,654.0,WeatherDisplay:10.37,2013-08-04 14:43:00,
2013-08-04 10:48:00,77.5,70.5,30.01,NE,38,0.0,0.0,79,0.00,OVC,,0.00,582.0,WeatherDisplay:10.37,2013-08-04 14:48:00,
2013-08-04 10:50:00,83.5,70.9,29.97,ESE,112,0.0,0.0,66,0.00,CLR,,0.01,954.0,WeatherDisplay:10.37,2013-08-04 14:50:00,
2013-08-04 10:53:00,77.9,70.5,30.01,North,360,0.0,0.0,78,0.00,OVC,,0.00,664.0,WeatherDisplay:10.37,2013-08-04 14:53:00,
2013-08-04 10:59:00,78.2,70.4,30.01,NE,42,0.0,0.0,77,0.00,OVC,,0.00,492.0,WeatherDisplay:10.37,2013-08-04 14:59:00,
2013-08-04 11:00:00,83.6,70.1,29.98,ESE,112,0.0,0.0,64,0.00,CLR,,0.01,874.0,WeatherDisplay:10.37,2013-08-04 15:00:00,
2013-08-04 11:04:00,78.4,69.4,30.01,North,350,0.0,0.0,74,0.00,OVC,,0.00,671.0,WeatherDisplay:10.37,2013-08-04 15:04:00,
2013-08-04 11:09:00,78.6,70.4,30.00,North,350,0.0,0.0,76,0.00,OVC,,0.00,647.0,WeatherDisplay:10.37,2013-08-04 15:09:00,
2013-08-04 11:10:00,82.9,70.4,29.98,ESE,112,0.0,0.0,66,0.00,SCT,,0.01,485.0,WeatherDisplay:10.37,2013-08-04 15:10:00,
2013-08-04 11:13:00,79.1,70.9,30.01,NNW,348,0.0,0.0,76,0.00,OVC,,0.00,715.0,WeatherDisplay:10.37,2013-08-04 15:13:00,
2013-08-04 11:19:00,79.6,71.0,30.00,NE,48,0.0,0.0,75,0.00,OVC,,0.00,729.0,WeatherDisplay:10.37,2013-08-04 15:19:00,
2013-08-04 11:20:00,82.4,69.9,29.97,ESE,112,0.0,0.0,66,0.00,CLR,,0.01,791.0,WeatherDisplay:10.37,2013-08-04 15:20:00,
2013-08-04 11:24:00,80.2,71.9,30.01,North,355,0.0,0.0,76,0.00,OVC,,0.00,703.0,WeatherDisplay:10.37,2013-08-04 15:24:00,
2013-08-04 11:29:00,80.3,70.0,30.01,NNW,344,0.0,0.0,71,0.00,OVC,,0.00,664.0,WeatherDisplay:10.37,2013-08-04 15:29:00,
2013-08-04 11:30:00,83.3,70.3,29.97,ESE,112,0.0,0.0,65,0.00,BKN,,0.01,262.0,WeatherDisplay:10.37,2013-08-04 15:30:00,
2013-08-04 11:34:00,80.0,69.3,30.00,NNW,340,0.0,0.0,70,0.00,OVC,,0.00,717.0,WeatherDisplay:10.37,2013-08-04 15:34:00,
2013-08-04 11:39:00,79.9,70.5,30.00,North,350,0.0,0.0,73,0.00,OVC,,0.00,649.0,WeatherDisplay:10.37,2013-08-04 15:39:00,
2013-08-04 11:40:00,83.1,71.0,29.97,ESE,112,0.0,0.0,67,0.00,CLR,,0.01,830.0,WeatherDisplay:10.37,2013-08-04 15:40:00,
2013-08-04 11:44:00,80.1,70.7,30.00,NNW,339,0.0,0.0,73,0.00,OVC,,0.00,737.0,WeatherDisplay:10.37,2013-08-04 15:44:00,
2013-08-04 11:49:00,80.3,71.6,30.00,NE,44,0.0,0.0,75,0.00,CLR,,0.00,756.0,WeatherDisplay:10.37,2013-08-04 15:49:00,
2013-08-04 11:50:00,82.6,69.6,29.98,ESE,112,0.0,0.0,65,0.00,BKN,,0.01,178.0,WeatherDisplay:10.37,2013-08-04 15:50:00,
2013-08-04 11:54:00,80.6,70.7,30.00,North,5,0.0,0.0,72,0.00,CLR,,0.00,805.0,WeatherDisplay:10.37,2013-08-04 15:54:00,
2013-08-04 11:59:00,80.7,70.4,30.01,NNW,336,0.0,0.0,71,0.00,CLR,,0.00,780.0,WeatherDisplay:10.37,2013-08-04 15:59:00,
2013-08-04 12:00:00,82.4,69.9,29.97,ESE,112,0.0,0.0,66,0.00,SCT,,0.01,654.0,WeatherDisplay:10.37,2013-08-04 16:00:00,
2013-08-04 12:04:00,80.6,69.9,30.01,NW,317,0.0,0.0,70,0.00,CLR,,0.00,807.0,WeatherDisplay:10.37,2013-08-04 16:04:00,
2013-08-04 12:09:00,80.6,69.5,30.01,NW,321,0.0,0.0,69,0.00,CLR,,0.00,684.0,WeatherDisplay:10.37,2013-08-04 16:09:00,
2013-08-04 12:10:00,82.7,69.7,29.97,ESE,112,0.0,0.0,65,0.00,SCT,,0.01,621.0,WeatherDisplay:10.37,2013-08-04 16:10:00,
2013-08-04 12:14:00,80.7,70.0,30.01,NW,319,0.0,0.0,70,0.00,CLR,,0.00,782.0,WeatherDisplay:10.37,2013-08-04 16:14:00,
2013-08-04 12:19:00,80.9,70.2,30.01,North,351,0.0,0.0,70,0.00,CLR,,0.00,696.0,WeatherDisplay:10.37,2013-08-04 16:19:00,
2013-08-04 12:20:00,82.3,69.8,29.97,ESE,112,0.0,0.0,66,0.00,SCT,,0.01,591.0,WeatherDisplay:10.37,2013-08-04 16:20:00,
2013-08-04 12:24:00,81.0,70.7,30.00,NNW,348,0.0,0.0,71,0.00,CLR,,0.00,780.0,WeatherDisplay:10.37,2013-08-04 16:24:00,
2013-08-04 12:29:00,81.3,71.0,30.00,North,355,0.0,0.0,71,0.00,CLR,,0.00,858.0,WeatherDisplay:10.37,2013-08-04 16:29:00,
2013-08-04 12:30:00,82.1,68.7,29.97,ESE,112,0.0,0.0,64,0.00,SCT,,0.01,583.0,WeatherDisplay:10.37,2013-08-04 16:30:00,
2013-08-04 12:34:00,81.4,70.7,30.00,North,5,0.0,0.0,70,0.00,CLR,,0.00,679.0,WeatherDisplay:10.37,2013-08-04 16:34:00,
2013-08-04 12:39:00,81.4,70.7,30.01,NW,317,0.0,0.0,70,0.00,CLR,,0.00,445.0,WeatherDisplay:10.37,2013-08-04 16:39:00,
2013-08-04 12:40:00,81.5,67.7,29.97,ESE,112,0.0,0.0,63,0.00,BKN,,0.01,394.0,WeatherDisplay:10.37,2013-08-04 16:40:00,
2013-08-04 12:44:00,81.5,71.2,30.00,NNE,16,0.0,0.0,71,0.00,CLR,,0.00,833.0,WeatherDisplay:10.37,2013-08-04 16:44:00,
2013-08-04 12:49:00,81.8,71.9,30.00,NNW,344,0.0,0.0,72,0.00,CLR,,0.00,953.0,WeatherDisplay:10.37,2013-08-04 16:49:00,
2013-08-04 12:50:00,81.4,68.1,29.97,ESE,112,0.0,0.0,64,0.00,BKN,,0.01,415.0,WeatherDisplay:10.37,2013-08-04 16:50:00,
2013-08-04 12:54:00,81.9,71.2,30.00,NNW,339,0.0,0.0,70,0.00,CLR,,0.00,795.0,WeatherDisplay:10.37,2013-08-04 16:54:00,
2013-08-04 12:59:00,82.2,72.7,30.00,NNW,340,0.0,0.0,73,0.00,CLR,,0.00,881.0,WeatherDisplay:10.37,2013-08-04 16:59:00,
2013-08-04 13:00:00,81.5,68.1,29.97,ESE,112,0.0,0.0,64,0.00,BKN,,0.01,513.0,WeatherDisplay:10.37,2013-08-04 17:00:00,
2013-08-04 13:04:00,82.3,71.5,30.00,NNW,348,0.0,0.0,70,0.00,CLR,,0.00,896.0,WeatherDisplay:10.37,2013-08-04 17:04:00,
2013-08-04 13:09:00,82.3,70.7,29.99,North,350,0.0,0.0,68,0.00,CLR,,0.00,826.0,WeatherDisplay:10.37,2013-08-04 17:09:00,
2013-08-04 13:10:00,81.6,68.7,29.97,ESE,112,0.0,0.0,65,0.00,BKN,,0.01,466.0,WeatherDisplay:10.37,2013-08-04 17:10:00,
2013-08-04 13:14:00,82.2,71.4,29.99,NNE,15,0.0,0.0,70,0.00,CLR,,0.00,749.0,WeatherDisplay:10.37,2013-08-04 17:14:00,
2013-08-04 13:19:00,82.3,71.1,29.99,NNW,328,0.0,0.0,69,0.00,CLR,,0.00,1023.0,WeatherDisplay:10.37,2013-08-04 17:19:00,
2013-08-04 13:20:00,81.6,69.6,29.97,ESE,112,0.0,0.0,67,0.00,BKN,,0.01,403.0,WeatherDisplay:10.37,2013-08-04 17:20:00,
2013-08-04 13:24:00,82.5,70.9,29.99,NNW,345,0.0,0.0,68,0.00,CLR,,0.00,527.0,WeatherDisplay:10.37,2013-08-04 17:24:00,
2013-08-04 13:29:00,82.8,70.7,29.99,North,355,0.0,0.0,67,0.00,CLR,,0.00,969.0,WeatherDisplay:10.37,2013-08-04 17:29:00,
2013-08-04 13:30:00,81.4,69.4,29.97,ESE,112,0.0,0.0,67,0.00,BKN,,0.01,338.0,WeatherDisplay:10.37,2013-08-04 17:30:00,
2013-08-04 13:34:00,82.6,71.0,29.99,NW,310,0.0,0.0,68,0.00,CLR,,0.00,1005.0,WeatherDisplay:10.37,2013-08-04 17:34:00,
2013-08-04 13:39:00,82.9,71.3,29.99,NNW,327,0.0,0.0,68,0.00,CLR,,0.00,984.0,WeatherDisplay:10.37,2013-08-04 17:39:00,
2013-08-04 13:40:00,81.2,69.2,29.97,ESE,112,0.0,0.0,67,0.00,BKN,,0.01,336.0,WeatherDisplay:10.37,2013-08-04 17:40:00,
2013-08-04 13:44:00,82.9,70.8,29.99,NNW,333,0.0,0.0,67,0.00,CLR,,0.00,854.0,WeatherDisplay:10.37,2013-08-04 17:44:00,
2013-08-04 13:49:00,82.7,70.6,29.99,NNW,333,0.0,0.0,67,0.00,CLR,,0.00,1034.0,WeatherDisplay:10.37,2013-08-04 17:49:00,
2013-08-04 13:50:00,81.3,69.7,29.97,ESE,112,0.0,0.0,68,0.00,BKN,,0.01,213.0,WeatherDisplay:10.37,2013-08-04 17:50:00,
2013-08-04 13:54:00,82.9,70.4,29.99,NNW,331,0.0,0.0,66,0.00,CLR,,0.00,1035.0,WeatherDisplay:10.37,2013-08-04 17:54:00,
2013-08-04 13:59:00,82.6,70.1,29.99,NNE,24,0.0,0.0,66,0.00,CLR,,0.00,962.0,WeatherDisplay:10.37,2013-08-04 17:59:00,
2013-08-04 14:00:00,81.0,69.9,29.98,ESE,112,0.0,0.0,69,0.00,BKN,,0.01,207.0,WeatherDisplay:10.37,2013-08-04 18:00:00,
2013-08-04 14:04:00,82.7,70.6,29.99,NNW,344,0.0,0.0,67,0.00,CLR,,0.00,969.0,WeatherDisplay:10.37,2013-08-04 18:04:00,
2013-08-04 14:09:00,83.2,72.0,29.99,NNW,346,0.0,0.0,69,0.00,CLR,,0.00,823.0,WeatherDisplay:10.37,2013-08-04 18:09:00,
2013-08-04 14:10:00,80.7,69.6,29.98,ESE,112,0.0,0.0,69,0.00,CLR,,0.01,55.0,WeatherDisplay:10.37,2013-08-04 18:10:00,
2013-08-04 14:14:00,83.4,69.0,29.99,NNW,336,0.0,0.0,62,0.00,CLR,,0.00,1060.0,WeatherDisplay:10.37,2013-08-04 18:14:00,
2013-08-04 14:19:00,83.2,71.1,29.99,NNW,337,0.0,0.0,67,0.00,CLR,,0.00,1060.0,WeatherDisplay:10.37,2013-08-04 18:19:00,
2013-08-04 14:20:00,80.3,69.6,29.98,ESE,112,0.0,0.0,70,0.00,CLR,,0.01,49.0,WeatherDisplay:10.37,2013-08-04 18:20:00,
2013-08-04 14:24:00,83.4,71.3,29.99,WNW,300,0.0,0.0,67,0.00,CLR,,0.00,990.0,WeatherDisplay:10.37,2013-08-04 18:24:00,
2013-08-04 14:29:00,83.6,71.0,29.99,WNW,296,0.0,0.0,66,0.00,CLR,,0.00,1020.0,WeatherDisplay:10.37,2013-08-04 18:29:00,
2013-08-04 14:30:00,79.8,69.1,29.98,ESE,112,0.0,0.0,70,0.00,BKN,,0.01,179.0,WeatherDisplay:10.37,2013-08-04 18:30:00,
2013-08-04 14:34:00,83.6,69.7,29.99,NW,312,0.0,0.0,63,0.00,CLR,,0.00,580.0,WeatherDisplay:10.37,2013-08-04 18:34:00,
2013-08-04 14:39:00,83.0,69.1,29.99,NNW,345,0.0,0.0,63,0.00,CLR,,0.00,967.0,WeatherDisplay:10.37,2013-08-04 18:39:00,
2013-08-04 14:40:00,79.8,69.6,29.98,ESE,112,0.0,0.0,71,0.00,BKN,,0.01,125.0,WeatherDisplay:10.37,2013-08-04 18:40:00,
2013-08-04 14:44:00,83.0,70.5,29.99,NNW,342,0.0,0.0,66,0.00,CLR,,0.00,960.0,WeatherDisplay:10.37,2013-08-04 18:44:00,
2013-08-04 14:49:00,83.0,70.9,29.99,WNW,302,0.0,0.0,67,0.00,CLR,,0.00,726.0,WeatherDisplay:10.37,2013-08-04 18:49:00,
2013-08-04 14:50:00,79.4,69.2,29.98,ESE,112,0.0,0.0,71,0.00,CLR,,0.01,53.0,WeatherDisplay:10.37,2013-08-04 18:50:00,
2013-08-04 14:54:00,83.0,69.1,29.98,NW,311,0.0,0.0,63,0.00,CLR,,0.00,926.0,WeatherDisplay:10.37,2013-08-04 18:54:00,
2013-08-04 14:59:00,83.0,70.0,29.99,NNW,333,0.0,0.0,65,0.00,CLR,,0.00,911.0,WeatherDisplay:10.37,2013-08-04 18:59:00,
2013-08-04 15:00:00,78.3,68.1,29.98,ESE,112,0.0,0.0,71,0.00,CLR,,0.01,40.0,WeatherDisplay:10.37,2013-08-04 19:00:00,
2013-08-04 15:04:00,83.1,69.2,29.98,NW,313,0.0,0.0,63,0.00,CLR,,0.00,893.0,WeatherDisplay:10.37,2013-08-04 19:04:00,
2013-08-04 15:09:00,83.3,71.2,29.98,NNW,344,0.0,0.0,67,0.00,CLR,,0.00,896.0,WeatherDisplay:10.37,2013-08-04 19:09:00,
2013-08-04 15:10:00,77.3,68.0,29.98,ESE,112,0.0,0.0,73,0.00,CLR,,0.01,33.0,WeatherDisplay:10.37,2013-08-04 19:10:00,
2013-08-04 15:14:00,83.4,71.3,29.98,NNW,341,0.0,0.0,67,0.00,CLR,,0.00,926.0,WeatherDisplay:10.37,2013-08-04 19:14:00,
2013-08-04 15:19:00,83.5,69.6,29.97,WNW,300,0.0,0.0,63,0.00,CLR,,0.00,812.0,WeatherDisplay:10.37,2013-08-04 19:19:00,
2013-08-04 15:20:00,76.6,68.1,29.98,ESE,112,0.0,0.0,75,0.00,CLR,,0.01,25.0,WeatherDisplay:10.37,2013-08-04 19:20:00,
2013-08-04 15:24:00,83.5,70.5,29.98,NNW,333,0.0,0.0,65,0.00,BKN,,0.00,322.0,WeatherDisplay:10.37,2013-08-04 19:24:00,
2013-08-04 15:29:00,83.4,69.5,29.98,WNW,296,0.0,0.0,63,0.00,BKN,,0.00,322.0,WeatherDisplay:10.37,2013-08-04 19:29:00,
2013-08-04 15:30:00,75.8,67.7,29.99,ESE,112,0.0,0.0,76,0.00,CLR,,0.01,12.0,WeatherDisplay:10.37,2013-08-04 19:30:00,
2013-08-04 15:34:00,83.1,71.9,29.98,NNW,342,0.0,0.0,69,0.00,CLR,,0.00,812.0,WeatherDisplay:10.37,2013-08-04 19:34:00,
2013-08-04 15:39:00,83.6,70.1,29.97,NW,313,0.0,0.0,64,0.00,CLR,,0.00,912.0,WeatherDisplay:10.37,2013-08-04 19:39:00,
2013-08-04 15:40:00,75.2,67.5,29.98,ESE,112,0.0,0.0,77,0.00,CLR,,0.01,0.0,WeatherDisplay:10.37,2013-08-04 19:40:00,
2013-08-04 15:44:00,83.6,70.1,29.97,NNW,333,0.0,0.0,64,0.00,CLR,,0.00,900.0,WeatherDisplay:10.37,2013-08-04 19:44:00,
2013-08-04 15:49:00,83.5,70.9,29.97,NNW,344,0.0,0.0,66,0.00,BKN,,0.00,965.0,WeatherDisplay:10.37,2013-08-04 19:49:00,
2013-08-04 15:50:00,74.6,66.5,29.99,ESE,112,0.0,0.0,76,0.00,CLR,,0.01,0.0,WeatherDisplay:10.37,2013-08-04 19:50:00,
2013-08-04 15:54:00,83.7,70.7,29.97,NE,55,0.0,0.0,65,0.00,CLR,,0.00,798.0,WeatherDisplay:10.37,2013-08-04 19:54:00,
2013-08-04 15:59:00,83.7,70.7,29.98,NNW,333,0.0,0.0,65,0.00,SCT,,0.00,464.0,WeatherDisplay:10.37,2013-08-04 19:59:00,
2013-08-04 16:00:00,74.2,66.1,29.99,ESE,112,0.0,0.0,76,0.00,CLR,,0.01,0.0,WeatherDisplay:10.37,2013-08-04 20:00:00,
2013-08-04 16:04:00,83.4,69.9,29.97,North,10,0.0,0.0,64,0.00,CLR,,0.00,867.0,WeatherDisplay:10.37,2013-08-04 20:04:00,
2013-08-04 16:09:00,83.1,70.6,29.97,NNW,342,0.0,0.0,66,0.00,BKN,,0.00,295.0,WeatherDisplay:10.37,2013-08-04 20:09:00,
2013-08-04 16:10:00,73.7,65.3,29.99,ESE,112,0.0,0.0,75,0.00,CLR,,0.01,0.0,WeatherDisplay:10.37,2013-08-04 20:10:00,
2013-08-04 16:14:00,82.4,69.4,29.97,NNW,331,0.0,0.0,65,0.00,BKN,,0.00,330.0,WeatherDisplay:10.37,2013-08-04 20:14:00,
2013-08-04 16:19:00,82.3,69.8,29.97,North,355,0.0,0.0,66,0.00,CLR,,0.00,849.0,WeatherDisplay:10.37,2013-08-04 20:19:00,
2013-08-04 16:20:00,73.3,64.9,30.00,ESE,112,0.0,0.0,75,0.00,CLR,,0.01,0.0,WeatherDisplay:10.37,2013-08-04 20:20:00,
2013-08-04 16:24:00,82.8,71.2,29.97,NNW,328,0.0,0.0,68,0.00,CLR,,0.00,798.0,WeatherDisplay:10.37,2013-08-04 20:24:00,
2013-08-04 16:29:00,83.3,70.3,29.97,NNW,335,0.0,0.0,65,0.00,FEW,,0.00,773.0,WeatherDisplay:10.37,2013-08-04 20:29:00,
2013-08-04 16:30:00,73.0,63.8,30.00,ESE,112,0.0,0.0,73,0.00,CLR,,0.01,0.0,WeatherDisplay:10.37,2013-08-04 20:30:00,
2013-08-04 16:34:00,83.0,69.6,29.97,NNW,339,0.0,0.0,64,0.00,BKN,,0.00,287.0,WeatherDisplay:10.37,2013-08-04 20:34:00,
2013-08-04 16:39:00,83.0,70.9,29.97,NNW,337,0.0,0.0,67,0.00,CLR,,0.00,830.0,WeatherDisplay:10.37,2013-08-04 20:39:00,
2013-08-04 16:40:00,72.9,64.1,30.00,ESE,112,0.0,0.0,74,0.00,CLR,,0.01,0.0,WeatherDisplay:10.37,2013-08-04 20:40:00,
2013-08-04 16:44:00,83.2,70.7,29.98,NE,51,0.0,0.0,66,0.00,BKN,,0.00,114.0,WeatherDisplay:10.37,2013-08-04 20:44:00,
2013-08-04 16:49:00,82.7,70.2,29.98,North,355,0.0,0.0,66,0.00,BKN,,0.00,178.0,WeatherDisplay:10.37,2013-08-04 20:49:00,
2013-08-04 16:50:00,72.6,63.4,30.00,ESE,112,0.0,0.0,73,0.00,CLR,,0.01,0.0,WeatherDisplay:10.37,2013-08-04 20:50:00,
2013-08-04 16:54:00,82.4,69.4,29.97,NNW,327,0.0,0.0,65,0.00,BKN,,0.00,339.0,WeatherDisplay:10.37,2013-08-04 20:54:00,
2013-08-04 16:59:00,82.4,70.8,29.97,North,355,0.0,0.0,68,0.00,SCT,,0.00,654.0,WeatherDisplay:10.37,2013-08-04 20:59:00,
2013-08-04 17:00:00,72.4,62.9,30.01,ESE,112,0.0,0.0,72,0.00,CLR,,0.01,0.0,WeatherDisplay:10.37,2013-08-04 21:00:00,
2013-08-04 17:04:00,82.5,70.4,29.97,NNW,339,0.0,0.0,67,0.00,BKN,,0.00,343.0,WeatherDisplay:10.37,2013-08-04 21:04:00,
2013-08-04 17:09:00,82.7,70.6,29.97,NE,48,0.0,0.0,67,0.00,SCT,,0.00,612.0,WeatherDisplay:10.37,2013-08-04 21:09:00,
2013-08-04 17:10:00,72.2,62.3,30.01,ESE,112,0.0,0.0,71,0.00,CLR,,0.01,0.0,WeatherDisplay:10.37,2013-08-04 21:10:00,
2013-08-04 17:14:00,82.5,70.0,29.97,North,355,0.0,0.0,66,0.00,SCT,,0.00,606.0,WeatherDisplay:10.37,2013-08-04 21:14:00,
2013-08-04 17:19:00,82.3,70.2,29.97,NNE,22,0.0,0.0,67,0.00,SCT,,0.00,596.0,WeatherDisplay:10.37,2013-08-04 21:19:00,
2013-08-04 17:20:00,72.1,62.6,30.01,ESE,112,0.0,0.0,72,0.00,CLR,,0.01,0.0,WeatherDisplay:10.37,2013-08-04 21:20:00,
2013-08-04 17:24:00,82.2,69.3,29.97,NNW,346,0.0,0.0,65,0.00,SCT,,0.00,584.0,WeatherDisplay:10.37,2013-08-04 21:24:00,
2013-08-04 17:30:00,82.0,69.1,29.97,North,360,0.0,0.0,65,0.00,SCT,,0.00,568.0,WeatherDisplay:10.37,2013-08-04 21:30:00,
2013-08-04 17:35:00,81.9,68.5,29.97,NNW,347,0.0,0.0,64,0.00,BKN,,0.00,508.0,WeatherDisplay:10.37,2013-08-04 21:35:00,
2013-08-04 17:40:00,81.6,68.7,29.97,NW,325,0.0,0.0,65,0.00,BKN,,0.00,468.0,WeatherDisplay:10.37,2013-08-04 21:40:00,
2013-08-04 17:45:00,81.4,68.1,29.97,North,350,0.0,0.0,64,0.00,BKN,,0.00,471.0,WeatherDisplay:10.37,2013-08-04 21:45:00,
2013-08-04 17:49:00,81.4,68.9,29.97,NNW,336,0.0,0.0,66,0.00,BKN,,0.00,415.0,WeatherDisplay:10.37,2013-08-04 21:49:00,
2013-08-04 17:50:00,72.1,62.6,30.01,ESE,112,0.0,0.0,72,0.00,CLR,,0.01,0.0,WeatherDisplay:10.37,2013-08-04 21:50:00,
2013-08-04 17:54:00,81.3,69.3,29.97,NNE,32,0.0,0.0,67,0.00,BKN,,0.00,424.0,WeatherDisplay:10.37,2013-08-04 21:54:00,
2013-08-04 17:59:00,81.4,68.5,29.97,NE,39,0.0,0.0,65,0.00,BKN,,0.00,524.0,WeatherDisplay:10.37,2013-08-04 21:59:00,
2013-08-04 18:00:00,72.1,62.6,30.01,ESE,112,0.0,0.0,72,0.00,CLR,,0.01,0.0,WeatherDisplay:10.37,2013-08-04 22:00:00,
2013-08-04 18:03:00,81.5,67.2,29.97,North,5,0.0,0.0,62,0.00,BKN,,0.00,504.0,WeatherDisplay:10.37,2013-08-04 22:03:00,
2013-08-04 18:09:00,81.6,68.2,29.97,NNW,327,0.0,0.0,64,0.00,BKN,,0.00,473.0,WeatherDisplay:10.37,2013-08-04 22:09:00,
2013-08-04 18:10:00,71.9,62.0,30.01,ESE,112,0.0,0.0,71,0.00,CLR,,0.01,0.0,WeatherDisplay:10.37,2013-08-04 22:10:00,
2013-08-04 18:14:00,81.6,68.7,29.97,NNW,348,0.0,0.0,65,0.00,BKN,,0.00,443.0,WeatherDisplay:10.37,2013-08-04 22:14:00,
2013-08-04 18:19:00,81.6,69.6,29.97,North,355,0.0,0.0,67,0.00,BKN,,0.00,403.0,WeatherDisplay:10.37,2013-08-04 22:19:00,
2013-08-04 18:20:00,71.8,62.3,30.02,ESE,112,0.0,0.0,72,0.00,CLR,,0.01,0.0,WeatherDisplay:10.37,2013-08-04 22:20:00,
2013-08-04 18:24:00,81.6,69.1,29.97,NNW,328,0.0,0.0,66,0.00,BKN,,0.00,397.0,WeatherDisplay:10.37,2013-08-04 22:24:00,
2013-08-04 18:29:00,81.5,68.6,29.97,North,5,0.0,0.0,65,0.00,BKN,,0.00,334.0,WeatherDisplay:10.37,2013-08-04 22:29:00,
2013-08-04 18:30:00,71.4,61.1,30.02,ESE,112,0.0,0.0,70,0.00,CLR,,0.01,0.0,WeatherDisplay:10.37,2013-08-04 22:30:00,
2013-08-04 18:34:00,81.3,68.9,29.97,North,5,0.0,0.0,66,0.00,BKN,,0.00,316.0,WeatherDisplay:10.37,2013-08-04 22:34:00,
2013-08-04 18:39:00,81.2,69.2,29.97,NNE,17,0.0,0.0,67,0.00,BKN,,0.00,360.0,WeatherDisplay:10.37,2013-08-04 22:39:00,
2013-08-04 18:40:00,71.2,61.7,30.01,ESE,112,0.0,0.0,72,0.00,CLR,,0.01,0.0,WeatherDisplay:10.37,2013-08-04 22:40:00,
2013-08-04 18:44:00,81.2,70.1,29.97,North,355,0.0,0.0,69,0.00,BKN,,0.00,329.0,WeatherDisplay:10.37,2013-08-04 22:44:00,
2013-08-04 18:49:00,81.2,69.6,29.97,North,355,0.0,0.0,68,0.00,BKN,,0.00,295.0,WeatherDisplay:10.37,2013-08-04 22:49:00,
2013-08-04 18:50:00,71.2,60.9,30.02,ESE,112,0.0,0.0,70,0.00,CLR,,0.01,0.0,WeatherDisplay:10.37,2013-08-04 22:50:00,
2013-08-04 18:54:00,81.2,70.1,29.97,North,360,0.0,0.0,69,0.00,BKN,,0.00,155.0,WeatherDisplay:10.37,2013-08-04 22:54:00,
2013-08-04 18:59:00,81.1,69.5,29.98,North,360,0.0,0.0,68,0.00,BKN,,0.00,193.0,WeatherDisplay:10.37,2013-08-04 22:59:00,
2013-08-04 19:00:00,71.4,61.1,30.02,ESE,112,0.0,0.0,70,0.00,CLR,,0.01,0.0,WeatherDisplay:10.37,2013-08-04 23:00:00,
2013-08-04 19:04:00,80.9,69.8,29.98,North,360,0.0,0.0,69,0.00,BKN,,0.00,167.0,WeatherDisplay:10.37,2013-08-04 23:04:00,
2013-08-04 19:09:00,80.8,69.7,29.98,North,360,0.0,0.0,69,0.00,BKN,,0.00,65.0,WeatherDisplay:10.37,2013-08-04 23:09:00,
2013-08-04 19:10:00,71.4,60.7,30.02,ESE,112,0.0,0.0,69,0.00,RA,,0.00,0.0,WeatherDisplay:10.37,2013-08-04 23:10:00,
2013-08-04 19:14:00,80.6,69.5,29.98,North,360,0.0,0.0,69,0.00,BKN,,0.00,77.0,WeatherDisplay:10.37,2013-08-04 23:14:00,
2013-08-04 19:19:00,80.4,69.3,29.98,North,360,0.0,0.0,69,0.00,CLR,,0.00,42.0,WeatherDisplay:10.37,2013-08-04 23:19:00,
2013-08-04 19:20:00,71.0,62.3,30.02,ESE,112,0.0,0.0,74,0.00,CLR,,0.00,0.0,WeatherDisplay:10.37,2013-08-04 23:20:00,
2013-08-04 19:24:00,80.0,69.3,29.98,North,360,0.0,0.0,70,0.00,BKN,,0.00,171.0,WeatherDisplay:10.37,2013-08-04 23:24:00,
2013-08-04 19:29:00,79.8,69.6,29.98,North,360,0.0,0.0,71,0.00,BKN,,0.00,195.0,WeatherDisplay:10.37,2013-08-04 23:29:00,
2013-08-04 19:30:00,70.2,61.5,30.02,ESE,112,0.0,0.0,74,0.00,CLR,,0.00,0.0,WeatherDisplay:10.37,2013-08-04 23:30:00,
2013-08-04 19:34:00,79.8,68.7,29.98,North,360,0.0,0.0,69,0.00,BKN,,0.00,179.0,WeatherDisplay:10.37,2013-08-04 23:34:00,
2013-08-04 19:39:00,79.8,69.6,29.98,North,360,0.0,0.0,71,0.00,BKN,,0.00,155.0,WeatherDisplay:10.37,2013-08-04 23:39:00,
2013-08-04 19:40:00,69.4,61.1,30.02,ESE,112,0.0,0.0,75,0.00,CLR,,0.00,0.0,WeatherDisplay:10.37,2013-08-04 23:40:00,
2013-08-04 19:44:00,79.7,68.6,29.98,North,360,0.0,0.0,69,0.00,BKN,,0.00,86.0,WeatherDisplay:10.37,2013-08-04 23:44:00,
2013-08-04 19:49:00,79.5,69.3,29.98,North,360,0.0,0.0,71,0.00,BKN,,0.00,72.0,WeatherDisplay:10.37,2013-08-04 23:49:00,
2013-08-04 19:50:00,68.8,60.9,30.03,ESE,112,0.0,0.0,76,0.00,CLR,,0.00,0.0,WeatherDisplay:10.37,2013-08-04 23:50:00,
2013-08-04 19:54:00,79.0,68.4,29.98,North,360,0.0,0.0,70,0.00,CLR,,0.00,51.0,WeatherDisplay:10.37,2013-08-04 23:54:00,
2013-08-04 19:59:00,78.4,67.8,29.98,North,360,0.0,0.0,70,0.00,CLR,,0.00,44.0,WeatherDisplay:10.37,2013-08-04 23:59:00,
2013-08-04 20:00:00,68.3,61.9,30.02,ESE,112,0.0,0.0,80,0.00,CLR,,0.00,0.0,WeatherDisplay:10.37,2013-08-05 00:00:00,
2013-08-04 20:04:00,77.9,68.1,29.98,North,360,0.0,0.0,72,0.00,CLR,,0.00,35.0,WeatherDisplay:10.37,2013-08-05 00:04:00,
2013-08-04 20:09:00,77.4,68.1,29.99,North,360,0.0,0.0,73,0.00,CLR,,0.00,35.0,WeatherDisplay:10.37,2013-08-05 00:09:00,
2013-08-04 20:10:00,67.7,61.3,30.02,ESE,112,0.0,0.0,80,0.00,CLR,,0.00,0.0,WeatherDisplay:10.37,2013-08-05 00:10:00,
2013-08-04 20:14:00,77.0,68.1,29.98,North,360,0.0,0.0,74,0.00,CLR,,0.00,33.0,WeatherDisplay:10.37,2013-08-05 00:14:00,
2013-08-04 20:19:00,76.7,67.8,29.99,North,360,0.0,0.0,74,0.00,CLR,,0.00,26.0,WeatherDisplay:10.37,2013-08-05 00:19:00,
2013-08-04 20:20:00,67.4,61.0,30.02,ESE,112,0.0,0.0,80,0.00,CLR,,0.00,0.0,WeatherDisplay:10.37,2013-08-05 00:20:00,
2013-08-04 20:24:00,76.4,68.3,29.99,North,360,0.0,0.0,76,0.00,CLR,,0.00,18.0,WeatherDisplay:10.37,2013-08-05 00:24:00,
2013-08-04 20:29:00,75.9,67.8,29.99,North,360,0.0,0.0,76,0.00,CLR,,0.00,12.0,WeatherDisplay:10.37,2013-08-05 00:29:00,
2013-08-04 20:30:00,67.3,61.6,30.01,ESE,112,0.0,0.0,82,0.00,CLR,,0.00,0.0,WeatherDisplay:10.37,2013-08-05 00:30:00,
2013-08-04 20:34:00,75.6,67.9,29.99,North,360,0.0,0.0,77,0.00,CLR,,0.00,7.0,WeatherDisplay:10.37,2013-08-05 00:34:00,
2013-08-04 20:39:00,75.3,67.6,29.99,North,360,0.0,0.0,77,0.00,CLR,,0.00,0.0,WeatherDisplay:10.37,2013-08-05 00:39:00,
2013-08-04 20:40:00,66.7,61.7,30.02,ESE,112,0.0,0.0,84,0.00,CLR,,0.00,0.0,WeatherDisplay:10.37,2013-08-05 00:40:00,
2013-08-04 20:44:00,74.9,66.8,29.99,North,360,0.0,0.0,76,0.00,CLR,,0.00,0.0,WeatherDisplay:10.37,2013-08-05 00:44:00,
2013-08-04 20:49:00,74.7,66.6,29.99,North,360,0.0,0.0,76,0.00,CLR,,0.00,0.0,WeatherDisplay:10.37,2013-08-05 00:49:00,
2013-08-04 20:50:00,66.1,60.8,30.01,ESE,112,0.0,0.0,83,0.00,CLR,,0.00,0.0,WeatherDisplay:10.37,2013-08-05 00:50:00,
2013-08-04 20:54:00,74.5,66.4,29.99,North,9,0.0,0.0,76,0.00,CLR,,0.00,0.0,WeatherDisplay:10.37,2013-08-05 00:54:00,
2013-08-04 20:59:00,74.2,66.1,29.99,North,9,0.0,0.0,76,0.00,CLR,,0.00,0.0,WeatherDisplay:10.37,2013-08-05 00:59:00,
2013-08-04 21:00:00,66.1,61.1,30.01,ESE,112,0.0,0.0,84,0.00,CLR,,0.00,0.0,WeatherDisplay:10.37,2013-08-05 01:00:00,
2013-08-04 21:04:00,74.0,65.6,29.99,North,9,0.0,0.0,75,0.00,CLR,,0.00,0.0,WeatherDisplay:10.37,2013-08-05 01:04:00,
2013-08-04 21:09:00,73.8,65.4,29.99,NNE,14,0.0,0.0,75,0.00,CLR,,0.00,0.0,WeatherDisplay:10.37,2013-08-05 01:09:00,
2013-08-04 21:10:00,66.0,61.0,30.01,ESE,112,0.0,0.0,84,0.00,CLR,,0.00,0.0,WeatherDisplay:10.37,2013-08-05 01:10:00,
2013-08-04 21:14:00,73.6,65.2,29.99,NNE,13,0.0,0.0,75,0.00,CLR,,0.00,0.0,WeatherDisplay:10.37,2013-08-05 01:14:00,
2013-08-04 21:19:00,73.4,64.6,29.99,NNE,30,0.0,0.0,74,0.00,CLR,,0.00,0.0,WeatherDisplay:10.37,2013-08-05 01:19:00,
2013-08-04 21:20:00,65.8,61.5,30.01,ESE,112,0.0,0.0,86,0.00,CLR,,0.00,0.0,WeatherDisplay:10.37,2013-08-05 01:20:00,
2013-08-04 21:24:00,73.2,64.4,30.00,NNE,30,0.0,0.0,74,0.00,CLR,,0.00,0.0,WeatherDisplay:10.37,2013-08-05 01:24:00,
2013-08-04 21:29:00,73.1,64.3,30.00,NNE,18,0.0,0.0,74,0.00,CLR,,0.00,0.0,WeatherDisplay:10.37,2013-08-05 01:29:00,
2013-08-04 21:30:00,65.4,61.4,30.00,ESE,112,0.0,0.0,87,0.00,CLR,,0.00,0.0,WeatherDisplay:10.37,2013-08-05 01:30:00,
2013-08-04 21:34:00,73.0,63.8,30.00,NNE,18,0.0,0.0,73,0.00,CLR,,0.00,0.0,WeatherDisplay:10.37,2013-08-05 01:34:00,
2013-08-04 21:40:00,72.9,63.7,30.00,NNE,18,0.0,0.0,73,0.00,CLR,,0.00,0.0,WeatherDisplay:10.37,2013-08-05 01:40:00,
2013-08-04 21:45:00,72.8,64.0,30.00,NNE,18,0.0,0.0,74,0.00,CLR,,0.00,0.0,WeatherDisplay:10.37,2013-08-05 01:45:00,
2013-08-04 21:50:00,72.7,63.5,30.00,NNE,18,0.0,0.0,73,0.00,CLR,,0.00,0.0,WeatherDisplay:10.37,2013-08-05 01:50:00,
2013-08-04 21:55:00,72.5,63.0,30.00,NNE,18,0.0,0.0,72,0.00,CLR,,0.00,0.0,WeatherDisplay:10.37,2013-08-05 01:55:00,
2013-08-04 22:00:00,72.4,62.9,30.00,NNE,18,0.0,0.0,72,0.00,CLR,,0.00,0.0,WeatherDisplay:10.37,2013-08-05 02:00:00,
2013-08-04 22:05:00,72.2,62.7,30.01,NNE,18,0.0,0.0,72,0.00,CLR,,0.00,0.0,WeatherDisplay:10.37,2013-08-05 02:05:00,
2013-08-04 22:09:00,72.2,62.7,30.01,NNE,18,0.0,0.0,72,0.00,CLR,,0.00,0.0,WeatherDisplay:10.37,2013-08-05 02:09:00,
2013-08-04 22:10:00,64.3,61.3,29.99,ESE,112,0.0,0.0,90,0.00,CLR,,0.00,0.0,WeatherDisplay:10.37,2013-08-05 02:10:00,
2013-08-04 22:14:00,72.2,62.3,30.01,NNE,18,0.0,0.0,71,0.00,CLR,,0.00,0.0,WeatherDisplay:10.37,2013-08-05 02:14:00,
2013-08-04 22:19:00,72.1,62.2,30.01,NNE,17,0.0,0.0,71,0.00,CLR,,0.00,0.0,WeatherDisplay:10.37,2013-08-05 02:19:00,
2013-08-04 22:20:00,64.2,61.5,29.99,ESE,112,0.0,0.0,91,0.00,CLR,,0.00,0.0,WeatherDisplay:10.37,2013-08-05 02:20:00,
2013-08-04 22:25:00,72.0,62.5,30.01,NNE,17,0.0,0.0,72,0.00,CLR,,0.00,0.0,WeatherDisplay:10.37,2013-08-05 02:25:00,
2013-08-04 22:30:00,71.9,62.8,30.01,NNE,16,0.0,0.0,73,0.00,CLR,,0.00,0.0,WeatherDisplay:10.37,2013-08-05 02:30:00,
2013-08-04 22:35:00,71.9,62.8,30.01,North,355,0.0,0.0,73,0.00,CLR,,0.00,0.0,WeatherDisplay:10.37,2013-08-05 02:35:00,
2013-08-04 22:40:00,71.9,63.2,30.01,NNE,16,0.0,0.0,74,0.00,CLR,,0.00,0.0,WeatherDisplay:10.37,2013-08-05 02:40:00,
2013-08-04 22:44:00,72.1,63.0,30.01,NNE,14,0.0,0.0,73,0.00,CLR,,0.00,0.0,WeatherDisplay:10.37,2013-08-05 02:44:00,
2013-08-04 22:50:00,72.1,62.6,30.01,NNE,18,0.0,0.0,72,0.00,CLR,,0.00,0.0,WeatherDisplay:10.37,2013-08-05 02:50:00,
2013-08-04 22:54:00,72.2,62.7,30.01,NNE,17,0.0,0.0,72,0.00,CLR,,0.00,0.0,WeatherDisplay:10.37,2013-08-05 02:54:00,
2013-08-04 23:00:00,72.1,62.6,30.01,NNE,16,0.0,0.0,72,0.00,CLR,,0.00,0.0,WeatherDisplay:10.37,2013-08-05 03:00:00,
2013-08-04 23:04:00,72.0,62.5,30.01,NNE,19,0.0,0.0,72,0.00,CLR,,0.00,0.0,WeatherDisplay:10.37,2013-08-05 03:04:00,
2013-08-04 23:10:00,71.9,62.0,30.01,NNE,20,0.0,0.0,71,0.00,CLR,,0.00,0.0,WeatherDisplay:10.37,2013-08-05 03:10:00,
2013-08-04 23:15:00,71.8,61.5,30.02,ENE,70,0.0,0.0,70,0.00,CLR,,0.00,0.0,WeatherDisplay:10.37,2013-08-05 03:15:00,
2013-08-04 23:20:00,71.8,62.3,30.02,ENE,58,0.0,0.0,72,0.00,CLR,,0.00,0.0,WeatherDisplay:10.37,2013-08-05 03:20:00,
2013-08-04 23:25:00,71.6,61.7,30.02,ENE,58,0.0,0.0,71,0.00,CLR,,0.00,0.0,WeatherDisplay:10.37,2013-08-05 03:25:00,
2013-08-04 23:30:00,71.4,61.1,30.02,ENE,58,0.0,0.0,70,0.00,CLR,,0.00,0.0,WeatherDisplay:10.37,2013-08-05 03:30:00,
2013-08-04 23:35:00,71.3,61.4,30.02,ENE,58,0.0,0.0,71,0.00,CLR,,0.00,0.0,WeatherDisplay:10.37,2013-08-05 03:35:00,
2013-08-04 23:40:00,71.2,61.7,30.01,ENE,63,0.0,0.0,72,0.00,CLR,,0.00,0.0,WeatherDisplay:10.37,2013-08-05 03:40:00,
2013-08-04 23:45:00,71.2,61.3,30.02,ENE,65,0.0,0.0,71,0.00,CLR,,0.00,0.0,WeatherDisplay:10.37,2013-08-05 03:45:00,
2013-08-04 23:50:00,71.2,61.3,30.02,NE,54,0.0,0.0,71,0.00,CLR,,0.00,0.0,WeatherDisplay:10.37,2013-08-05 03:50:00,
2013-08-04 23:55:00,71.3,61.0,30.02,ENE,57,0.0,0.0,70,0.00,CLR,,0.00,0.0,WeatherDisplay:10.37,2013-08-05 03:55:00,